Terminal Aerodrome Forecast
Issued by NWS Buffalo, NY

Home | Current Version | Previous Version | Text Only | Print | Product List | Glossary On
Versions: 1 2 3 4 5 6 7 8 9 10 11 12 13 14 15 16 17 18 19 20 21 22 23 24 25
000
FTUS41 KBUF 311500 AAA
TAFART
TAF AMD
KART 311508Z 3115/0112 10004KT P6SM BKN050 OVC060
     FM311900 06005KT P6SM OVC035
     FM010300 04007KT P6SM VCSH OVC035
     FM010800 03008KT P6SM VCSH OVC030=

USA.gov is the U.S. government's official web portal to all federal, state and local government web resources and services.